Current Version              Previous Version:    01  02  03  04  05  06  07  08  09  10  11  12  13  14  15  16  17  18  19  20  21  22  23  24  25  26  27  28  29  30  
   31  32  33  34  35  36  37  38  39  40  41  42  43  44  45  46  47  48  49  50  51  52  53  54  55  56  57  58  59  60  

[Printable]
090
ASUS44 KLUB 210401
RWRTX
WEST TEXAS WEATHER ROUNDUP
NATIONAL WEATHER SERVICE LUBBOCK TX
1100 PM CDT WED AUG 20 2014

NOTE: "FAIR" INDICATES FEW OR NO CLOUDS BELOW 12,000 FEET WITH NO
SIGNIFICANT WEATHER AND/OR OBSTRUCTIONS TO VISIBILITY.

TXZ004-006>008-010-012-014-016-OKZ002-210500-
TEXAS PANHANDLE/OKLAHOMA PANHANDLE

CITY           SKY/WX    TMP DP  RH WIND       PRES   REMARKS
AMARILLO       PTCLDY    82  61  48 S20       29.97R
BORGER         PTCLDY    86  58  38 S15G22    29.91R
CANADIAN       PTCLDY    86  63  45 S15       29.88R
DALHART        CLEAR     79  57  46 S13       29.95R
DUMAS          CLEAR     78  61  55 S12       29.93R
GUYMON         CLEAR     81  59  47 S12       29.86R
HEREFORD       PTCLDY    76  66  70 SE10      29.99R
PAMPA          PTCLDY    82  57  43 S18G26    29.95R
PERRYTON       PTCLDY    84  58  41 S14       29.89R
$$

TXZ026-029-035-045-048-210500-
SOUTHERN PANHANDLE/SOUTH PLAINS/ROLLING PLAINS

CITY           SKY/WX    TMP DP  RH WIND       PRES   REMARKS
CHILDRESS      PTCLDY    89  63  41 S17       29.92R
SEMINOLE       CLOUDY    78  61  55 S12       30.01R
LUBBOCK        CLOUDY    77  61  57 S17G28    29.99R
PLAINVIEW      CLOUDY    76  64  66 S17       29.99R
SNYDER         MOCLDY    78  64  62 E3        29.99F
$$

TXZ052-054-060>062-072-078-127-140-154-169-210500-
PERMIAN BASIN/CONCHO VALLEY/BIG COUNTRY/EDWARDS PLATEAU

CITY           SKY/WX    TMP DP  RH WIND       PRES   REMARKS
ABILENE        CLEAR     84  60  44 S9        29.97R
BIG SPRING     CLOUDY    85  60  43 SE15      30.00R
BRADY          CLEAR     81  63  54 SE10      29.98R
BROWNWOOD      CLOUDY    81  59  47 SE8       29.96R
JUNCTION       PTCLDY    82  65  56 SE9       29.98R
MIDLAND        CLOUDY    79  68  69 S12       29.98R
ODESSA         CLOUDY    78  65  63 S8        29.99R
SAN ANGELO     CLEAR     80  63  55 SE5       29.96S
SONORA         CLEAR     81  63  54 SE6       30.02R
SWEETWATER     MOCLDY    83  56  39 S13       30.03R
WINK           MOCLDY    82  63  52 SE15      29.95R
$$

TXZ055-058-074-075-080-082-210500-
FAR WEST/SOUTHWEST MOUNTAINS/TRANS PECOS

CITY           SKY/WX    TMP DP  RH WIND       PRES   REMARKS
ALPINE         CLOUDY    71  63  76 SW9       30.15R
DRYDEN           N/A     83  67  58 W6        29.95R
EL PASO        PTCLDY    85  44  23 W14       29.99R
FORT STOCKTON  CLOUDY    77  64  64 S13       30.00R
GUADALUPE PASS CLEAR     75  52  44 SW10      30.13R
MARFA          CLOUDY    70  63  78 SE5       30.14R
PRESIDIO       FAIR      77  66  67 MISG      29.99R
$$

TXZ014-016-019-021>030-083-210500
TEXAS TECH WEST TEXAS MESONET/TEXAS PANHANDLE/NORTHERN SOUTH PLAINS

CITY           SKY/WX    TMP DP  RH WIND       PRES   REMARKS
ABERNATHY 5ENE   N/A     75  63  66 S15       30.01R
AMARILLO 9NNE    N/A     83  62  48 S16       29.93R
AMARILLO 7SSE    N/A     80  62  54 S14       29.98R
AMHERST 1NE      N/A     75  64  69 SE18G29   30.00R
BOOTLEG 11WNW    N/A     75  62  64 SE13      30.02R
CANADIAN 6E      N/A     83  62  48 SE10      29.88R
CAPROCK CYN SP   N/A     80  65  59 S13       29.96R
CHILDRESS 2NNE   N/A     88  61  39 S25       29.90R
CLARENDON 2WSW   N/A     85  61  45 S17       29.94R
CLAUDE 12SW      N/A     82  63  51 S12       29.97R
DIMMITT 2NE      N/A     77  63  61 SE20      30.00R
FLOYDADA 2NNE    N/A     74  62  66 S17       30.01R
FRIONA 2NE       N/A     75  64  69 S18       30.00R
GOODLETT 3W      N/A     89  58  35 S17       29.89R
HART 3N          N/A     76  63  63 S16G26    30.00R
HEREFORD 2NW     N/A     75  63  65 S10       29.98R
MCLEAN 1E        N/A     83  61  47 S15       29.93R
MEMPHIS 1NE      N/A     89  62  40 SE15      29.91R
MULESHOE 2SSW    N/A     77  64  64 SE15      29.99R
OLTON 6S         N/A     75  63  66 S20       30.00R
PALO DURO SP     N/A     83  62  49 S12       29.98R
PAMPA 2E         N/A     80  60  50 SE14      29.94R
PLAINVIEW 1S     N/A     77  64  63 S16       29.99R
SILVERTON 7ESE   N/A     78  64  62 S18       29.98R
TULIA 2ENE       N/A     79  64  59 S22       29.98R
TURKEY 2WSW      N/A     80  66  62 S16       29.93R
UMBARGER 3NNE    N/A     80  62  54 S15       29.98R
$$

TXZ033>036-039>041-045>048-210500
TEXAS TECH WEST TEXAS MESONET/SOUTH PLAINS

CITY           SKY/WX    TMP DP  RH WIND       PRES   REMARKS
AIKEN 3WSW       N/A     76  66  71 S15       30.01R
ANTON 6SSW       N/A     74  65  73 SE16      29.99R
BROWNFIELD 2S    N/A     73  63  71 SE13      30.00R
DENVR CTY 7WNW   N/A     78  59  53 S16       30.00R
GAIL 2ESE        N/A     73  68  84 E5        29.98R
LAMESA 2SE       N/A     74  67  80 SE7       30.00R
LEVELLAND 4S     N/A     74  61  63 SE14      30.00R
LUBBOCK 3WNW     N/A     75  61  62 SE14      29.99F
MORTON 1ENE      N/A     79  62  57 SE14      29.99R
ODONNELL 1N      N/A     72  65  77 SE9       30.00R
PLAINS 3N        N/A     79  61  54 SE14      30.00R
RALLS 1SE        N/A     71  64  77 S9        30.01S
REESE CENTER     N/A     74  63  69 SE16      29.99S
SEAGRAVES 1SW    N/A     76  64  66 SE8       30.00R
SEMINOLE 2NNE    N/A     79  61  53 S14       29.99R
SLATON 2NE       N/A     71  64  77 S12       30.00R
SNYDER 3E        N/A     77  64  63 N5        29.99S
SUNDOWN 8SW      N/A     76  62  62 SE14      30.00R
TAHOKA 3NNE      N/A     71  64  76 SE8       29.99S
WOLFFORTH 6SSW   N/A     73  63  70 SE13      30.00S
$$

TXZ031-032-036>038-042>044-210500-
TEXAS TECH WEST TEXAS MESONET/ROLLING PLAINS

CITY           SKY/WX    TMP DP  RH WIND       PRES   REMARKS
ASPERMONT 3NE    N/A     86  60  41 S9        29.95R
GRAHAM 5SSW      N/A     70  64  83 SE7       29.99R
GUTHRIE 10WSW    N/A     81  63  54 W12       29.98R
HASKELL 1NW      N/A     85  54  34 S6        29.94R
JAYTON 1SSE      N/A     79  64  60 W9        29.98R
KNOX CITY 3NW    N/A     86  56  36 S10       29.93R
LK A HENRY 1NW   N/A     77  67  71 S2        29.95F
NORTHFIELD 1S    N/A     82  66  58 S21       29.92R
ODELL 4ENE       N/A     89  54  30 S15       29.91R
PADUCAH 10SW     N/A     81  66  60 SW18      29.95R
POST 1NE         N/A     70  68  93 S7        29.97S
SEYMOUR 3NW      N/A     87  52  29 S10       29.92R
SPUR 1W          N/A     72  67  84 CALM      29.99S
WEINERT 2NNE     N/A     84  59  41 S8        29.94R
WHITE RVR 6NE    N/A     70  67  90 SE6       29.99S
$$

TXZ052-054-060>062-072-078-127-140-154-169-210500-
TEXAS TECH WEST TEXAS MESONET/PERMIAN BASIN/
CONCHO VALLEY/BIG COUNTRY/EDWARDS PLATEAU

CITY           SKY/WX    TMP DP  RH WIND       PRES   REMARKS
COYANOSA 2N      N/A     82  63  53 S17       29.95R
JUNCTION 1SSW    N/A     80  65  61 S3        29.99R
MERTZON 3NNE     N/A     81  62  52 S5        29.99R
SAN ANGELO 7NW   N/A     79  62  55 SE5       29.98R
STRLNG CT 4WSW   N/A     84  60  45 SE9       29.98S
ST LAWRNCE 5SW   N/A     82  58  44 SE15      29.98S
SWEETWATR 11SW   N/A     83  59  44 S10       30.02R
WALL 1E          N/A     74  65  73 SE7       29.98R
$$

TXZ055-058-074-075-080-082-210500-
TEXAS TECH WEST TEXAS MESONET/FAR WEST/SOUTHWEST MOUNTAINS/TRANS PECOS

CITY           SKY/WX    TMP DP  RH WIND       PRES   REMARKS
PRSMN GAP BBNP   N/A     77  65  65 NE7       30.00R
GUADLPE MTN NP   N/A     74  50  43 SW6       30.13R
$$